Time,TemperatureF,DewpointF,PressureIn,WindDirection,WindDirectionDegrees,WindSpeedMPH,WindSpeedGustMPH,Humidity,HourlyPrecipIn,Conditions,Clouds,dailyrainin,SoftwareType,DateUTC
2013-08-06 00:01:00,67.0,-99.9,29.94,South,172,3.0,4.0,-999,-99.99,,,-99.99,,2013-08-06 07:01:00,
2013-08-06 00:12:00,67.0,-99.9,29.94,SSE,168,3.0,6.0,-999,-99.99,,,-99.99,,2013-08-06 07:12:00,
2013-08-06 00:22:00,67.0,-99.9,29.94,SSE,168,3.0,6.0,-999,-99.99,,,-99.99,,2013-08-06 07:22:00,
2013-08-06 00:32:00,66.0,-99.9,29.95,South,170,3.0,5.0,-999,-99.99,,,-99.99,,2013-08-06 07:32:00,
2013-08-06 00:44:00,66.0,-99.9,29.94,South,176,3.0,7.0,-999,-99.99,,,-99.99,,2013-08-06 07:44:00,
2013-08-06 00:53:00,66.0,-99.9,29.94,SSE,160,3.0,7.0,-999,-99.99,,,-99.99,,2013-08-06 07:53:00,
2013-08-06 01:02:00,66.0,-99.9,29.94,SSE,160,3.0,7.0,-999,-99.99,,,-99.99,,2013-08-06 08:02:00,
2013-08-06 01:11:00,66.0,-99.9,29.94,South,170,2.0,7.0,-999,-99.99,,,-99.99,,2013-08-06 08:11:00,
2013-08-06 01:22:00,66.0,-99.9,29.94,South,170,2.0,7.0,-999,-99.99,,,-99.99,,2013-08-06 08:22:00,
2013-08-06 01:33:00,66.0,-99.9,29.94,South,191,2.0,4.0,-999,-99.99,,,-99.99,,2013-08-06 08:33:00,
2013-08-06 01:43:00,66.0,-99.9,29.93,SSW,207,2.0,4.0,-999,-99.99,,,-99.99,,2013-08-06 08:43:00,
2013-08-06 01:52:00,66.0,-99.9,29.92,SSW,198,3.0,6.0,-999,-99.99,,,-99.99,,2013-08-06 08:52:00,
2013-08-06 02:01:00,66.0,-99.9,29.92,SSW,198,3.0,6.0,-999,-99.99,,,-99.99,,2013-08-06 09:01:00,
2013-08-06 02:11:00,66.0,-99.9,29.92,SSW,198,3.0,6.0,-999,-99.99,,,-99.99,,2013-08-06 09:11:00,
2013-08-06 02:33:00,66.0,-99.9,29.92,WSW,240,2.0,5.0,-999,-99.99,,,-99.99,,2013-08-06 09:33:00,
2013-08-06 02:43:00,66.0,-99.9,29.93,SW,227,3.0,6.0,-999,-99.99,,,-99.99,,2013-08-06 09:43:00,
2013-08-06 02:52:00,66.0,-99.9,29.93,SW,227,3.0,6.0,-999,-99.99,,,-99.99,,2013-08-06 09:52:00,
2013-08-06 03:02:00,66.0,-99.9,29.93,SW,227,3.0,6.0,-999,-99.99,,,-99.99,,2013-08-06 10:02:00,
2013-08-06 03:12:00,65.0,-99.9,29.94,SE,133,2.0,5.0,-999,-99.99,,,-99.99,,2013-08-06 10:12:00,
2013-08-06 03:22:00,65.0,-99.9,29.93,East,96,2.0,4.0,-999,-99.99,,,-99.99,,2013-08-06 10:22:00,
2013-08-06 03:32:00,65.0,-99.9,29.93,East,96,2.0,4.0,-999,-99.99,,,-99.99,,2013-08-06 10:32:00,
2013-08-06 03:43:00,65.0,-99.9,29.93,East,96,2.0,4.0,-999,-99.99,,,-99.99,,2013-08-06 10:43:00,
2013-08-06 03:53:00,65.0,-99.9,29.93,East,96,2.0,4.0,-999,-99.99,,,-99.99,,2013-08-06 10:53:00,
2013-08-06 04:11:00,65.0,-99.9,29.94,ESE,117,0.0,4.0,-999,-99.99,,,-99.99,,2013-08-06 11:11:00,
2013-08-06 04:22:00,65.0,-99.9,29.94,SW,214,2.0,5.0,-999,-99.99,,,-99.99,,2013-08-06 11:22:00,
2013-08-06 04:32:00,65.0,-99.9,29.93,SW,217,1.0,3.0,-999,-99.99,,,-99.99,,2013-08-06 11:32:00,
2013-08-06 04:43:00,65.0,-99.9,29.93,WSW,247,2.0,3.0,-999,-99.99,,,-99.99,,2013-08-06 11:43:00,
2013-08-06 04:53:00,65.0,-99.9,29.92,SW,233,3.0,5.0,-999,-99.99,,,-99.99,,2013-08-06 11:53:00,
2013-08-06 05:02:00,65.0,-99.9,29.92,SSW,205,2.0,5.0,-999,-99.99,,,-99.99,,2013-08-06 12:02:00,
2013-08-06 05:11:00,65.0,-99.9,29.92,SSW,204,3.0,4.0,-999,-99.99,,,-99.99,,2013-08-06 12:11:00,
2013-08-06 05:43:00,64.0,-99.9,29.91,SE,125,0.0,2.0,-999,-99.99,,,-99.99,,2013-08-06 12:43:00,
2013-08-06 05:52:00,64.0,-99.9,29.91,ENE,67,1.0,2.0,-999,-99.99,,,-99.99,,2013-08-06 12:52:00,
2013-08-06 06:02:00,64.0,-99.9,29.93,SW,219,1.0,5.0,-999,-99.99,,,-99.99,,2013-08-06 13:02:00,
2013-08-06 06:11:00,64.0,-99.9,29.93,SW,219,1.0,5.0,-999,-99.99,,,-99.99,,2013-08-06 13:11:00,
2013-08-06 06:42:00,65.0,-99.9,29.92,NNW,332,2.0,3.0,-999,-99.99,,,-99.99,,2013-08-06 13:42:00,
2013-08-06 06:53:00,65.0,-99.9,29.92,NNW,332,2.0,3.0,-999,-99.99,,,-99.99,,2013-08-06 13:53:00,
2013-08-06 07:11:00,64.0,-99.9,29.92,East,81,1.0,2.0,-999,-99.99,,,-99.99,,2013-08-06 14:11:00,
2013-08-06 07:22:00,64.0,-99.9,29.92,East,81,1.0,2.0,-999,-99.99,,,-99.99,,2013-08-06 14:22:00,
2013-08-06 07:32:00,65.0,-99.9,29.95,NE,53,2.0,3.0,-999,-99.99,,,-99.99,,2013-08-06 14:32:00,
2013-08-06 07:42:00,65.0,-99.9,29.95,NE,53,2.0,3.0,-999,-99.99,,,-99.99,,2013-08-06 14:42:00,
2013-08-06 07:53:00,65.0,-99.9,29.94,East,100,1.0,3.0,-999,-99.99,,,-99.99,,2013-08-06 14:53:00,
2013-08-06 08:02:00,65.0,-99.9,29.94,East,100,1.0,3.0,-999,-99.99,,,-99.99,,2013-08-06 15:02:00,
2013-08-06 08:12:00,65.0,-99.9,29.95,SE,133,2.0,4.0,-999,-99.99,,,-99.99,,2013-08-06 15:12:00,
2013-08-06 08:23:00,65.0,-99.9,29.94,NNW,329,2.0,3.0,-999,-99.99,,,-99.99,,2013-08-06 15:23:00,
2013-08-06 08:33:00,65.0,-99.9,29.96,NE,38,1.0,2.0,-999,-99.99,,,-99.99,,2013-08-06 15:33:00,
2013-08-06 08:44:00,66.0,-99.9,29.95,North,11,1.0,3.0,-999,-99.99,,,-99.99,,2013-08-06 15:44:00,
2013-08-06 08:52:00,66.0,-99.9,29.96,ESE,119,4.0,5.0,-999,-99.99,,,-99.99,,2013-08-06 15:52:00,
2013-08-06 09:02:00,66.0,-99.9,29.97,ESE,104,2.0,7.0,-999,-99.99,,,-99.99,,2013-08-06 16:02:00,
2013-08-06 09:11:00,66.0,-99.9,29.96,WNW,293,2.0,3.0,-999,-99.99,,,-99.99,,2013-08-06 16:11:00,
2013-08-06 09:22:00,66.0,-99.9,29.96,WNW,293,2.0,3.0,-999,-99.99,,,-99.99,,2013-08-06 16:22:00,
2013-08-06 09:32:00,67.0,-99.9,29.96,SSW,213,2.0,6.0,-999,-99.99,,,-99.99,,2013-08-06 16:32:00,
2013-08-06 09:43:00,68.0,-99.9,29.97,SSE,168,3.0,5.0,-999,-99.99,,,-99.99,,2013-08-06 16:43:00,
2013-08-06 09:52:00,68.0,-99.9,29.98,SSE,162,1.0,8.0,-999,-99.99,,,-99.99,,2013-08-06 16:52:00,
2013-08-06 10:02:00,68.0,-99.9,29.98,SSE,162,1.0,8.0,-999,-99.99,,,-99.99,,2013-08-06 17:02:00,
2013-08-06 10:11:00,68.0,-99.9,29.98,SSE,162,1.0,8.0,-999,-99.99,,,-99.99,,2013-08-06 17:11:00,
2013-08-06 10:32:00,70.0,-99.9,29.97,WSW,255,4.0,7.0,-999,-99.99,,,-99.99,,2013-08-06 17:32:00,
2013-08-06 10:44:00,71.0,-99.9,29.98,SW,228,6.0,12.0,-999,-99.99,,,-99.99,,2013-08-06 17:44:00,
2013-08-06 10:52:00,71.0,-99.9,29.98,South,186,5.0,10.0,-999,-99.99,,,-99.99,,2013-08-06 17:52:00,
2013-08-06 11:02:00,71.0,-99.9,29.98,South,186,5.0,10.0,-999,-99.99,,,-99.99,,2013-08-06 18:02:00,
2013-08-06 11:11:00,71.0,-99.9,29.98,South,170,3.0,9.0,-999,-99.99,,,-99.99,,2013-08-06 18:11:00,
2013-08-06 11:22:00,71.0,-99.9,29.98,South,170,3.0,9.0,-999,-99.99,,,-99.99,,2013-08-06 18:22:00,
2013-08-06 11:32:00,72.0,-99.9,29.96,WSW,257,3.0,9.0,-999,-99.99,,,-99.99,,2013-08-06 18:32:00,
2013-08-06 11:44:00,73.0,-99.9,29.96,SSW,200,6.0,10.0,-999,-99.99,,,-99.99,,2013-08-06 18:44:00,
2013-08-06 11:52:00,73.0,-99.9,29.98,SSW,208,5.0,14.0,-999,-99.99,,,-99.99,,2013-08-06 18:52:00,
2013-08-06 12:01:00,73.0,-99.9,29.98,WSW,245,5.0,9.0,-999,-99.99,,,-99.99,,2013-08-06 19:01:00,
2013-08-06 12:11:00,73.0,-99.9,29.98,WSW,245,5.0,9.0,-999,-99.99,,,-99.99,,2013-08-06 19:11:00,
2013-08-06 12:22:00,74.0,-99.9,29.96,WSW,245,4.0,11.0,-999,-99.99,,,-99.99,,2013-08-06 19:22:00,
2013-08-06 12:32:00,75.0,-99.9,29.96,SSW,210,5.0,9.0,-999,-99.99,,,-99.99,,2013-08-06 19:32:00,
2013-08-06 12:42:00,75.0,-99.9,29.96,WSW,252,4.0,9.0,-999,-99.99,,,-99.99,,2013-08-06 19:42:00,
2013-08-06 12:52:00,75.0,-99.9,29.96,WSW,252,4.0,9.0,-999,-99.99,,,-99.99,,2013-08-06 19:52:00,
2013-08-06 13:01:00,75.0,-99.9,29.96,WSW,252,4.0,9.0,-999,-99.99,,,-99.99,,2013-08-06 20:01:00,
2013-08-06 13:30:00,78.0,-99.9,29.96,SW,226,6.0,10.0,-999,-99.99,,,-99.99,,2013-08-06 20:30:00,
2013-08-06 13:32:00,76.0,-99.9,29.95,SW,214,4.0,11.0,-999,-99.99,,,-99.99,,2013-08-06 20:32:00,
2013-08-06 13:44:00,76.0,-99.9,29.95,SW,214,4.0,11.0,-999,-99.99,,,-99.99,,2013-08-06 20:44:00,
2013-08-06 13:52:00,78.0,-99.9,29.96,SW,226,6.0,10.0,-999,-99.99,,,-99.99,,2013-08-06 20:52:00,
2013-08-06 14:01:00,78.0,-99.9,29.96,SW,226,6.0,10.0,-999,-99.99,,,-99.99,,2013-08-06 21:01:00,
2013-08-06 14:12:00,78.0,-99.9,29.96,SW,226,6.0,10.0,-999,-99.99,,,-99.99,,2013-08-06 21:12:00,
2013-08-06 14:22:00,78.0,-99.9,29.96,SW,226,6.0,10.0,-999,-99.99,,,-99.99,,2013-08-06 21:22:00,
2013-08-06 14:53:00,79.0,-99.9,29.95,SW,219,6.0,12.0,-999,-99.99,,,-99.99,,2013-08-06 21:53:00,
2013-08-06 15:02:00,79.0,-99.9,29.95,SW,219,6.0,12.0,-999,-99.99,,,-99.99,,2013-08-06 22:02:00,
2013-08-06 15:11:00,79.0,-99.9,29.96,SSW,193,5.0,9.0,-999,-99.99,,,-99.99,,2013-08-06 22:11:00,
2013-08-06 15:20:00,79.0,-99.9,29.95,SW,234,6.0,11.0,-999,-99.99,,,-99.99,,2013-08-06 22:20:00,
2013-08-06 15:22:00,79.0,-99.9,29.95,SW,214,5.0,9.0,-999,-99.99,,,-99.99,,2013-08-06 22:22:00,
2013-08-06 15:32:00,79.0,-99.9,29.95,SW,214,5.0,9.0,-999,-99.99,,,-99.99,,2013-08-06 22:32:00,
2013-08-06 15:43:00,79.0,-99.9,29.95,SW,234,6.0,11.0,-999,-99.99,,,-99.99,,2013-08-06 22:43:00,
2013-08-06 15:53:00,79.0,-99.9,29.95,SW,234,6.0,11.0,-999,-99.99,,,-99.99,,2013-08-06 22:53:00,
2013-08-06 16:02:00,79.0,-99.9,29.95,SW,234,6.0,11.0,-999,-99.99,,,-99.99,,2013-08-06 23:02:00,
2013-08-06 16:11:00,79.0,-99.9,29.95,SW,234,6.0,11.0,-999,-99.99,,,-99.99,,2013-08-06 23:11:00,
2013-08-06 16:52:00,79.0,-99.9,29.93,South,186,7.0,12.0,-999,-99.99,,,-99.99,,2013-08-06 23:52:00,
2013-08-06 17:01:00,79.0,-99.9,29.94,SSW,206,5.0,11.0,-999,-99.99,,,-99.99,,2013-08-07 00:01:00,
2013-08-06 17:11:00,79.0,-99.9,29.94,South,179,6.0,10.0,-999,-99.99,,,-99.99,,2013-08-07 00:11:00,
2013-08-06 17:22:00,79.0,-99.9,29.94,South,179,6.0,10.0,-999,-99.99,,,-99.99,,2013-08-07 00:22:00,
2013-08-06 17:32:00,78.0,-99.9,29.93,SSW,211,6.0,14.0,-999,-99.99,,,-99.99,,2013-08-07 00:32:00,
2013-08-06 17:43:00,78.0,-99.9,29.93,SSW,211,6.0,14.0,-999,-99.99,,,-99.99,,2013-08-07 00:43:00,
2013-08-06 17:52:00,78.0,-99.9,29.93,SSW,211,6.0,14.0,-999,-99.99,,,-99.99,,2013-08-07 00:52:00,
2013-08-06 18:11:00,78.0,-99.9,29.92,SSW,198,5.0,9.0,-999,-99.99,,,-99.99,,2013-08-07 01:11:00,
2013-08-06 18:32:00,78.0,-99.9,29.92,SW,220,3.0,7.0,-999,-99.99,,,-99.99,,2013-08-07 01:32:00,
2013-08-06 18:43:00,79.0,-99.9,29.94,West,263,6.0,12.0,-999,-99.99,,,-99.99,,2013-08-07 01:43:00,
2013-08-06 18:53:00,78.0,-99.9,29.93,West,272,6.0,11.0,-999,-99.99,,,-99.99,,2013-08-07 01:53:00,
2013-08-06 19:02:00,78.0,-99.9,29.93,West,272,6.0,11.0,-999,-99.99,,,-99.99,,2013-08-07 02:02:00,
2013-08-06 19:11:00,77.0,-99.9,29.93,WNW,292,4.0,8.0,-999,-99.99,,,-99.99,,2013-08-07 02:11:00,
2013-08-06 19:22:00,77.0,-99.9,29.93,WNW,292,4.0,8.0,-999,-99.99,,,-99.99,,2013-08-07 02:22:00,
2013-08-06 19:33:00,77.0,-99.9,29.93,WNW,292,4.0,8.0,-999,-99.99,,,-99.99,,2013-08-07 02:33:00,
2013-08-06 19:43:00,76.0,-99.9,29.94,WNW,297,4.0,10.0,-999,-99.99,,,-99.99,,2013-08-07 02:43:00,
2013-08-06 19:53:00,76.0,-99.9,29.93,WNW,286,4.0,10.0,-999,-99.99,,,-99.99,,2013-08-07 02:53:00,
2013-08-06 20:01:00,75.0,-99.9,29.93,WNW,301,5.0,10.0,-999,-99.99,,,-99.99,,2013-08-07 03:01:00,
2013-08-06 20:12:00,75.0,-99.9,29.93,WNW,301,5.0,10.0,-999,-99.99,,,-99.99,,2013-08-07 03:12:00,
2013-08-06 20:23:00,75.0,-99.9,29.93,WNW,301,5.0,10.0,-999,-99.99,,,-99.99,,2013-08-07 03:23:00,
2013-08-06 20:32:00,75.0,-99.9,29.93,WNW,301,5.0,10.0,-999,-99.99,,,-99.99,,2013-08-07 03:32:00,
2013-08-06 20:43:00,73.0,-99.9,29.96,WNW,300,4.0,9.0,-999,-99.99,,,-99.99,,2013-08-07 03:43:00,
2013-08-06 20:52:00,73.0,-99.9,29.96,WNW,300,4.0,9.0,-999,-99.99,,,-99.99,,2013-08-07 03:52:00,
2013-08-06 21:01:00,72.0,-99.9,29.96,WNW,284,5.0,9.0,-999,-99.99,,,-99.99,,2013-08-07 04:01:00,
2013-08-06 21:11:00,72.0,-99.9,29.95,West,280,7.0,10.0,-999,-99.99,,,-99.99,,2013-08-07 04:11:00,
2013-08-06 21:22:00,72.0,-99.9,29.95,West,280,7.0,10.0,-999,-99.99,,,-99.99,,2013-08-07 04:22:00,
2013-08-06 21:33:00,71.0,-99.9,29.97,West,278,4.0,10.0,-999,-99.99,,,-99.99,,2013-08-07 04:33:00,
2013-08-06 21:43:00,71.0,-99.9,29.96,West,277,3.0,9.0,-999,-99.99,,,-99.99,,2013-08-07 04:43:00,
2013-08-06 21:52:00,70.0,-99.9,29.96,NW,305,3.0,6.0,-999,-99.99,,,-99.99,,2013-08-07 04:52:00,
2013-08-06 22:02:00,70.0,-99.9,29.96,NW,305,3.0,6.0,-999,-99.99,,,-99.99,,2013-08-07 05:02:00,
2013-08-06 22:11:00,70.0,-99.9,29.96,West,273,1.0,7.0,-999,-99.99,,,-99.99,,2013-08-07 05:11:00,
2013-08-06 22:22:00,70.0,-99.9,29.98,West,277,2.0,4.0,-999,-99.99,,,-99.99,,2013-08-07 05:22:00,
2013-08-06 22:32:00,70.0,-99.9,29.98,West,277,2.0,4.0,-999,-99.99,,,-99.99,,2013-08-07 05:32:00,
2013-08-06 22:43:00,69.0,-99.9,29.98,WNW,282,2.0,3.0,-999,-99.99,,,-99.99,,2013-08-07 05:43:00,
2013-08-06 22:52:00,69.0,-99.9,29.96,WSW,248,2.0,5.0,-999,-99.99,,,-99.99,,2013-08-07 05:52:00,
2013-08-06 23:02:00,69.0,-99.9,29.96,WNW,287,2.0,4.0,-999,-99.99,,,-99.99,,2013-08-07 06:02:00,
2013-08-06 23:12:00,69.0,-99.9,29.98,West,276,2.0,5.0,-999,-99.99,,,-99.99,,2013-08-07 06:12:00,
2013-08-06 23:22:00,68.0,-99.9,29.98,West,264,2.0,5.0,-999,-99.99,,,-99.99,,2013-08-07 06:22:00,
2013-08-06 23:32:00,68.0,-99.9,29.99,West,260,2.0,7.0,-999,-99.99,,,-99.99,,2013-08-07 06:32:00,
2013-08-06 23:43:00,68.0,-99.9,29.98,WNW,297,3.0,5.0,-999,-99.99,,,-99.99,,2013-08-07 06:43:00,
2013-08-06 23:52:00,68.0,-99.9,29.98,WNW,297,3.0,5.0,-999,-99.99,,,-99.99,,2013-08-07 06:52:00,